Time,TemperatureF,DewpointF,PressureIn,WindDirection,WindDirectionDegrees,WindSpeedMPH,WindSpeedGustMPH,Humidity,HourlyPrecipIn,Conditions,Clouds,dailyrainin,SoftwareType,DateUTC
2013-02-28 00:00:00,45.4,39.3,30.35,WSW,238,0.0,0.0,79,0.00,,,0.00,WUHU216DAVISVP2,2013-02-28 08:00:00,
2013-02-28 00:05:00,45.0,38.9,30.35,WSW,238,0.0,0.0,79,0.00,,,0.00,WUHU216DAVISVP2,2013-02-28 08:05:00,
2013-02-28 00:10:00,44.6,38.5,30.35,WSW,238,0.0,0.0,79,0.00,,,0.00,WUHU216DAVISVP2,2013-02-28 08:10:00,
2013-02-28 00:15:00,44.2,38.8,30.35,WSW,238,0.0,0.0,81,0.00,,,0.00,WUHU216DAVISVP2,2013-02-28 08:15:00,
2013-02-28 00:20:00,44.3,38.9,30.35,WSW,238,0.0,0.0,81,0.00,,,0.00,WUHU216DAVISVP2,2013-02-28 08:20:00,
2013-02-28 00:25:00,44.6,39.1,30.35,WSW,238,0.0,0.0,81,0.00,,,0.00,WUHU216DAVISVP2,2013-02-28 08:25:00,
2013-02-28 00:30:00,44.5,39.0,30.35,WSW,238,0.0,0.0,81,0.00,,,0.00,WUHU216DAVISVP2,2013-02-28 08:30:00,
2013-02-28 00:35:00,44.1,38.6,30.35,WSW,238,0.0,0.0,81,0.00,,,0.00,WUHU216DAVISVP2,2013-02-28 08:35:00,
2013-02-28 00:40:00,43.8,38.7,30.35,WSW,238,0.0,0.0,82,0.00,,,0.00,WUHU216DAVISVP2,2013-02-28 08:40:00,
2013-02-28 00:45:00,43.8,38.7,30.35,WSW,238,0.0,0.0,82,0.00,,,0.00,WUHU216DAVISVP2,2013-02-28 08:45:00,
2013-02-28 00:50:00,43.6,38.2,30.35,WSW,238,0.0,0.0,81,0.00,,,0.00,WUHU216DAVISVP2,2013-02-28 08:50:00,
2013-02-28 00:55:00,43.4,38.3,30.35,WSW,238,0.0,0.0,82,0.00,,,0.00,WUHU216DAVISVP2,2013-02-28 08:55:00,
2013-02-28 01:00:00,43.4,38.3,30.35,WSW,238,0.0,0.0,82,0.00,,,0.00,WUHU216DAVISVP2,2013-02-28 09:00:00,
2013-02-28 01:05:00,43.7,38.6,30.35,WSW,238,0.0,0.0,82,0.00,,,0.00,WUHU216DAVISVP2,2013-02-28 09:05:00,
2013-02-28 01:10:00,43.4,38.0,30.35,WSW,238,0.0,0.0,81,0.00,,,0.00,WUHU216DAVISVP2,2013-02-28 09:10:00,
2013-02-28 01:15:00,43.6,38.5,30.36,WSW,238,1.0,1.0,82,0.00,,,0.00,WUHU216DAVISVP2,2013-02-28 09:15:00,
2013-02-28 01:20:00,43.5,38.4,30.36,WSW,238,0.0,1.0,82,0.00,,,0.00,WUHU216DAVISVP2,2013-02-28 09:20:00,
2013-02-28 01:25:00,43.5,38.4,30.36,WSW,238,0.0,0.0,82,0.00,,,0.00,WUHU216DAVISVP2,2013-02-28 09:25:00,
2013-02-28 01:30:00,43.3,38.2,30.36,WSW,238,0.0,0.0,82,0.00,,,0.00,WUHU216DAVISVP2,2013-02-28 09:30:00,
2013-02-28 01:35:00,42.8,38.0,30.36,WSW,238,0.0,0.0,83,0.00,,,0.00,WUHU216DAVISVP2,2013-02-28 09:35:00,
2013-02-28 01:40:00,42.0,37.2,30.36,WSW,238,0.0,0.0,83,0.00,,,0.00,WUHU216DAVISVP2,2013-02-28 09:40:00,
2013-02-28 01:45:00,41.4,36.9,30.36,WSW,238,0.0,0.0,84,0.00,,,0.00,WUHU216DAVISVP2,2013-02-28 09:45:00,
2013-02-28 01:50:00,41.1,36.9,30.36,WSW,238,0.0,0.0,85,0.00,,,0.00,WUHU216DAVISVP2,2013-02-28 09:50:00,
2013-02-28 01:55:00,41.2,37.0,30.36,WSW,238,0.0,0.0,85,0.00,,,0.00,WUHU216DAVISVP2,2013-02-28 09:55:00,
2013-02-28 02:00:00,40.9,37.0,30.35,WSW,238,0.0,0.0,86,0.00,,,0.00,WUHU216DAVISVP2,2013-02-28 10:00:00,
2013-02-28 02:05:00,40.6,36.7,30.35,WSW,238,0.0,0.0,86,0.00,,,0.00,WUHU216DAVISVP2,2013-02-28 10:05:00,
2013-02-28 02:10:00,40.9,37.3,30.35,WSW,238,0.0,0.0,87,0.00,,,0.00,WUHU216DAVISVP2,2013-02-28 10:10:00,
2013-02-28 02:15:00,40.8,37.2,30.35,WSW,238,0.0,0.0,87,0.00,,,0.00,WUHU216DAVISVP2,2013-02-28 10:15:00,
2013-02-28 02:20:00,40.8,37.2,30.35,WSW,238,0.0,0.0,87,0.00,,,0.00,WUHU216DAVISVP2,2013-02-28 10:20:00,
2013-02-28 02:25:00,40.7,37.1,30.35,WSW,238,0.0,2.0,87,0.00,,,0.00,WUHU216DAVISVP2,2013-02-28 10:25:00,
2013-02-28 02:30:00,40.5,37.2,30.35,WSW,238,0.0,2.0,88,0.00,,,0.00,WUHU216DAVISVP2,2013-02-28 10:30:00,
2013-02-28 02:35:00,40.2,36.6,30.35,WSW,238,0.0,0.0,87,0.00,,,0.00,WUHU216DAVISVP2,2013-02-28 10:35:00,
2013-02-28 02:40:00,40.2,36.9,30.35,WSW,238,0.0,0.0,88,0.00,,,0.00,WUHU216DAVISVP2,2013-02-28 10:40:00,
2013-02-28 02:45:00,40.2,36.9,30.35,WSW,238,0.0,0.0,88,0.00,,,0.00,WUHU216DAVISVP2,2013-02-28 10:45:00,
2013-02-28 02:50:00,39.6,36.3,30.35,SE,146,0.0,0.0,88,0.00,,,0.00,WUHU216DAVISVP2,2013-02-28 10:50:00,
2013-02-28 02:55:00,39.7,36.7,30.35,SE,146,0.0,1.0,89,0.00,,,0.00,WUHU216DAVISVP2,2013-02-28 10:55:00,
2013-02-28 03:00:00,39.7,36.7,30.35,SE,146,0.0,1.0,89,0.00,,,0.00,WUHU216DAVISVP2,2013-02-28 11:00:00,
2013-02-28 03:05:00,40.3,37.6,30.35,SE,146,0.0,1.0,90,0.00,,,0.00,WUHU216DAVISVP2,2013-02-28 11:05:00,
2013-02-28 03:10:00,40.4,37.4,30.35,SE,146,0.0,1.0,89,0.00,,,0.00,WUHU216DAVISVP2,2013-02-28 11:10:00,
2013-02-28 03:15:00,40.4,37.4,30.35,SE,146,0.0,1.0,89,0.00,,,0.00,WUHU216DAVISVP2,2013-02-28 11:15:00,
2013-02-28 03:20:00,40.0,36.7,30.35,SE,146,0.0,0.0,88,0.00,,,0.00,WUHU216DAVISVP2,2013-02-28 11:20:00,
2013-02-28 03:25:00,39.9,36.6,30.35,SE,146,0.0,0.0,88,0.00,,,0.00,WUHU216DAVISVP2,2013-02-28 11:25:00,
2013-02-28 03:30:00,39.9,36.6,30.35,SE,146,0.0,1.0,88,0.00,,,0.00,WUHU216DAVISVP2,2013-02-28 11:30:00,
2013-02-28 03:35:00,40.3,37.3,30.35,SE,146,0.0,1.0,89,0.00,,,0.00,WUHU216DAVISVP2,2013-02-28 11:35:00,
2013-02-28 03:40:00,40.3,37.3,30.35,SE,146,0.0,0.0,89,0.00,,,0.00,WUHU216DAVISVP2,2013-02-28 11:40:00,
2013-02-28 03:45:00,40.0,36.7,30.35,SE,146,0.0,0.0,88,0.00,,,0.00,WUHU216DAVISVP2,2013-02-28 11:45:00,
2013-02-28 03:50:00,40.1,37.1,30.35,SE,146,0.0,0.0,89,0.00,,,0.00,WUHU216DAVISVP2,2013-02-28 11:50:00,
2013-02-28 03:55:00,40.1,36.8,30.36,SE,146,0.0,0.0,88,0.00,,,0.00,WUHU216DAVISVP2,2013-02-28 11:55:00,
2013-02-28 04:00:00,39.5,36.2,30.36,SE,146,0.0,0.0,88,0.00,,,0.00,WUHU216DAVISVP2,2013-02-28 12:00:00,
2013-02-28 04:05:00,39.2,35.9,30.36,SE,146,0.0,0.0,88,0.00,,,0.00,WUHU216DAVISVP2,2013-02-28 12:05:00,
2013-02-28 04:10:00,39.4,36.4,30.36,SE,146,0.0,0.0,89,0.00,,,0.00,WUHU216DAVISVP2,2013-02-28 12:10:00,
2013-02-28 04:15:00,39.1,36.1,30.36,SE,146,0.0,0.0,89,0.00,,,0.00,WUHU216DAVISVP2,2013-02-28 12:15:00,
2013-02-28 04:20:00,39.1,36.1,30.36,SE,146,0.0,0.0,89,0.00,,,0.00,WUHU216DAVISVP2,2013-02-28 12:20:00,
2013-02-28 04:25:00,39.4,36.4,30.36,SE,146,0.0,0.0,89,0.00,,,0.00,WUHU216DAVISVP2,2013-02-28 12:25:00,
2013-02-28 04:30:00,39.2,36.2,30.36,SE,146,0.0,0.0,89,0.00,,,0.00,WUHU216DAVISVP2,2013-02-28 12:30:00,
2013-02-28 04:35:00,38.7,35.7,30.36,SE,146,0.0,0.0,89,0.00,,,0.00,WUHU216DAVISVP2,2013-02-28 12:35:00,
2013-02-28 04:40:00,38.2,35.2,30.36,SE,146,0.0,0.0,89,0.00,,,0.00,WUHU216DAVISVP2,2013-02-28 12:40:00,
2013-02-28 04:45:00,38.0,35.0,30.36,SE,146,0.0,0.0,89,0.00,,,0.00,WUHU216DAVISVP2,2013-02-28 12:45:00,
2013-02-28 04:50:00,38.1,35.4,30.37,SE,146,1.0,1.0,90,0.00,,,0.00,WUHU216DAVISVP2,2013-02-28 12:50:00,
2013-02-28 04:55:00,37.9,35.2,30.37,SE,146,0.0,2.0,90,0.00,,,0.00,WUHU216DAVISVP2,2013-02-28 12:55:00,
2013-02-28 05:00:00,37.8,35.4,30.37,SE,146,0.0,2.0,91,0.00,,,0.00,WUHU216DAVISVP2,2013-02-28 13:00:00,
2013-02-28 05:05:00,37.7,35.3,30.37,SE,146,0.0,1.0,91,0.00,,,0.00,WUHU216DAVISVP2,2013-02-28 13:05:00,
2013-02-28 05:10:00,37.9,35.5,30.37,SE,146,0.0,0.0,91,0.00,,,0.00,WUHU216DAVISVP2,2013-02-28 13:10:00,
2013-02-28 05:15:00,38.2,35.8,30.37,SE,146,0.0,0.0,91,0.00,,,0.00,WUHU216DAVISVP2,2013-02-28 13:15:00,
2013-02-28 05:20:00,38.4,36.0,30.37,SE,146,0.0,0.0,91,0.00,,,0.00,WUHU216DAVISVP2,2013-02-28 13:20:00,
2013-02-28 05:25:00,38.5,36.1,30.37,SE,146,0.0,0.0,91,0.00,,,0.00,WUHU216DAVISVP2,2013-02-28 13:25:00,
2013-02-28 05:30:00,38.2,35.8,30.38,SE,146,0.0,0.0,91,0.00,,,0.00,WUHU216DAVISVP2,2013-02-28 13:30:00,
2013-02-28 05:35:00,38.3,35.9,30.38,SE,146,0.0,0.0,91,0.00,,,0.00,WUHU216DAVISVP2,2013-02-28 13:35:00,
2013-02-28 05:40:00,38.2,35.8,30.38,SE,146,0.0,0.0,91,0.00,,,0.00,WUHU216DAVISVP2,2013-02-28 13:40:00,
2013-02-28 05:45:00,38.1,35.7,30.38,SE,146,0.0,0.0,91,0.00,,,0.00,WUHU216DAVISVP2,2013-02-28 13:45:00,
2013-02-28 05:50:00,37.8,35.4,30.38,SE,146,0.0,2.0,91,0.00,,,0.00,WUHU216DAVISVP2,2013-02-28 13:50:00,
2013-02-28 05:55:00,37.5,35.1,30.38,SE,146,0.0,2.0,91,0.00,,,0.00,WUHU216DAVISVP2,2013-02-28 13:55:00,
2013-02-28 06:00:00,37.4,35.2,30.38,SE,146,0.0,0.0,92,0.00,,,0.00,WUHU216DAVISVP2,2013-02-28 14:00:00,
2013-02-28 06:05:00,37.3,35.1,30.38,SE,146,1.0,1.0,92,0.00,,,0.00,WUHU216DAVISVP2,2013-02-28 14:05:00,
2013-02-28 06:10:00,37.2,35.0,30.39,SE,146,0.0,1.0,92,0.00,,,0.00,WUHU216DAVISVP2,2013-02-28 14:10:00,
2013-02-28 06:15:00,37.2,35.0,30.39,SE,146,0.0,1.0,92,0.00,,,0.00,WUHU216DAVISVP2,2013-02-28 14:15:00,
2013-02-28 06:20:00,37.3,35.4,30.39,SE,146,0.0,1.0,93,0.00,,,0.00,WUHU216DAVISVP2,2013-02-28 14:20:00,
2013-02-28 06:25:00,37.3,35.4,30.39,SE,146,0.0,1.0,93,0.00,,,0.00,WUHU216DAVISVP2,2013-02-28 14:25:00,
2013-02-28 06:30:00,37.2,35.3,30.39,SE,146,0.0,0.0,93,0.00,,,0.00,WUHU216DAVISVP2,2013-02-28 14:30:00,
2013-02-28 06:35:00,37.4,35.5,30.39,SE,146,0.0,0.0,93,0.00,,,0.00,WUHU216DAVISVP2,2013-02-28 14:35:00,
2013-02-28 06:40:00,37.4,35.5,30.39,SE,146,0.0,0.0,93,0.00,,,0.00,WUHU216DAVISVP2,2013-02-28 14:40:00,
2013-02-28 06:45:00,37.0,34.8,30.40,SE,146,0.0,0.0,92,0.00,,,0.00,WUHU216DAVISVP2,2013-02-28 14:45:00,
2013-02-28 06:50:00,37.2,35.3,30.40,SE,146,0.0,0.0,93,0.00,,,0.00,WUHU216DAVISVP2,2013-02-28 14:50:00,
2013-02-28 06:55:00,37.6,35.7,30.40,SE,146,0.0,0.0,93,0.00,,,0.00,WUHU216DAVISVP2,2013-02-28 14:55:00,
2013-02-28 07:00:00,37.5,35.6,30.40,SE,146,0.0,1.0,93,0.00,,,0.00,WUHU216DAVISVP2,2013-02-28 15:00:00,
2013-02-28 07:05:00,38.2,36.3,30.40,SE,146,0.0,1.0,93,0.00,,,0.00,WUHU216DAVISVP2,2013-02-28 15:05:00,
2013-02-28 07:10:00,38.6,36.7,30.40,SE,146,0.0,0.0,93,0.00,,,0.00,WUHU216DAVISVP2,2013-02-28 15:10:00,
2013-02-28 07:15:00,39.3,37.4,30.40,SE,146,0.0,0.0,93,0.00,,,0.00,WUHU216DAVISVP2,2013-02-28 15:15:00,
2013-02-28 07:20:00,39.8,37.6,30.40,SE,146,0.0,0.0,92,0.00,,,0.00,WUHU216DAVISVP2,2013-02-28 15:20:00,
2013-02-28 07:25:00,40.3,37.8,30.41,SE,146,1.0,2.0,91,0.00,,,0.00,WUHU216DAVISVP2,2013-02-28 15:25:00,
2013-02-28 07:30:00,40.7,38.0,30.41,SE,146,0.0,2.0,90,0.00,,,0.00,WUHU216DAVISVP2,2013-02-28 15:30:00,
2013-02-28 07:35:00,41.1,38.3,30.41,SE,146,0.0,1.0,90,0.00,,,0.00,WUHU216DAVISVP2,2013-02-28 15:35:00,
2013-02-28 07:40:00,41.7,38.7,30.41,SE,146,0.0,2.0,89,0.00,,,0.00,WUHU216DAVISVP2,2013-02-28 15:40:00,
2013-02-28 07:45:00,42.2,38.9,30.42,SE,146,0.0,2.0,88,0.00,,,0.00,WUHU216DAVISVP2,2013-02-28 15:45:00,
2013-02-28 07:50:00,42.9,39.0,30.42,SE,146,0.0,2.0,86,0.00,,,0.00,WUHU216DAVISVP2,2013-02-28 15:50:00,
2013-02-28 07:55:00,43.8,39.6,30.42,SE,146,0.0,2.0,85,0.00,,,0.00,WUHU216DAVISVP2,2013-02-28 15:55:00,
2013-02-28 08:00:00,44.5,40.0,30.42,SE,146,1.0,2.0,84,0.00,,,0.00,WUHU216DAVISVP2,2013-02-28 16:00:00,
2013-02-28 08:05:00,45.1,39.6,30.42,SE,146,0.0,4.0,81,0.00,,,0.00,WUHU216DAVISVP2,2013-02-28 16:05:00,
2013-02-28 08:10:00,45.7,39.9,30.43,SSE,149,0.0,4.0,80,0.00,,,0.00,WUHU216DAVISVP2,2013-02-28 16:10:00,
2013-02-28 08:15:00,46.2,40.1,30.43,South,189,2.0,4.0,79,0.00,,,0.00,WUHU216DAVISVP2,2013-02-28 16:15:00,
2013-02-28 08:20:00,46.9,40.4,30.43,South,189,0.0,4.0,78,0.00,,,0.00,WUHU216DAVISVP2,2013-02-28 16:20:00,
2013-02-28 08:25:00,47.5,40.7,30.43,South,189,0.0,4.0,77,0.00,,,0.00,WUHU216DAVISVP2,2013-02-28 16:25:00,
2013-02-28 08:30:00,48.3,41.1,30.43,South,189,0.0,3.0,76,0.00,,,0.00,WUHU216DAVISVP2,2013-02-28 16:30:00,
2013-02-28 08:35:00,48.7,40.9,30.43,South,189,0.0,3.0,74,0.00,,,0.00,WUHU216DAVISVP2,2013-02-28 16:35:00,
2013-02-28 08:40:00,49.3,41.1,30.43,South,189,4.0,4.0,73,0.00,,,0.00,WUHU216DAVISVP2,2013-02-28 16:40:00,
2013-02-28 08:45:00,49.8,40.9,30.43,South,189,0.0,4.0,71,0.00,,,0.00,WUHU216DAVISVP2,2013-02-28 16:45:00,
2013-02-28 08:50:00,50.6,40.9,30.43,South,190,0.0,3.0,69,0.00,,,0.00,WUHU216DAVISVP2,2013-02-28 16:50:00,
2013-02-28 08:55:00,51.2,40.7,30.44,West,278,0.0,5.0,67,0.00,,,0.00,WUHU216DAVISVP2,2013-02-28 16:55:00,
2013-02-28 09:00:00,51.5,41.0,30.44,West,273,4.0,5.0,67,0.00,,,0.00,WUHU216DAVISVP2,2013-02-28 17:00:00,
2013-02-28 09:05:00,51.8,40.9,30.44,West,277,0.0,5.0,66,0.00,,,0.00,WUHU216DAVISVP2,2013-02-28 17:05:00,
2013-02-28 09:10:00,52.5,42.0,30.43,West,278,2.0,5.0,67,0.00,,,0.00,WUHU216DAVISVP2,2013-02-28 17:10:00,
2013-02-28 09:15:00,52.7,41.4,30.43,West,269,3.0,5.0,65,0.00,,,0.00,WUHU216DAVISVP2,2013-02-28 17:15:00,
2013-02-28 09:20:00,53.4,42.0,30.43,West,277,0.0,5.0,65,0.00,,,0.00,WUHU216DAVISVP2,2013-02-28 17:20:00,
2013-02-28 09:25:00,53.9,42.1,30.43,West,273,3.0,5.0,64,0.00,,,0.00,WUHU216DAVISVP2,2013-02-28 17:25:00,
2013-02-28 09:30:00,54.6,42.8,30.43,West,273,2.0,5.0,64,0.00,,,0.00,WUHU216DAVISVP2,2013-02-28 17:30:00,
2013-02-28 09:35:00,55.0,43.6,30.43,NW,312,2.0,5.0,65,0.00,,,0.00,WUHU216DAVISVP2,2013-02-28 17:35:00,
2013-02-28 09:40:00,55.5,43.2,30.43,SW,227,1.0,3.0,63,0.00,,,0.00,WUHU216DAVISVP2,2013-02-28 17:40:00,
2013-02-28 09:45:00,55.4,42.7,30.43,WNW,298,0.0,4.0,62,0.00,,,0.00,WUHU216DAVISVP2,2013-02-28 17:45:00,
2013-02-28 09:50:00,56.5,43.8,30.43,WNW,298,0.0,4.0,62,0.00,,,0.00,WUHU216DAVISVP2,2013-02-28 17:50:00,
2013-02-28 09:55:00,56.9,43.7,30.43,WNW,298,2.0,4.0,61,0.00,,,0.00,WUHU216DAVISVP2,2013-02-28 17:55:00,
2013-02-28 10:00:00,57.8,45.0,30.44,WNW,298,1.0,3.0,62,0.00,,,0.00,WUHU216DAVISVP2,2013-02-28 18:00:00,
2013-02-28 10:05:00,57.8,43.7,30.44,WNW,298,3.0,3.0,59,0.00,,,0.00,WUHU216DAVISVP2,2013-02-28 18:05:00,
2013-02-28 10:10:00,57.8,43.7,30.44,WNW,298,0.0,3.0,59,0.00,,,0.00,WUHU216DAVISVP2,2013-02-28 18:10:00,
2013-02-28 10:15:00,58.1,44.0,30.44,WNW,298,0.0,3.0,59,0.00,,,0.00,WUHU216DAVISVP2,2013-02-28 18:15:00,
2013-02-28 10:20:00,59.4,44.3,30.44,North,360,2.0,4.0,57,0.00,,,0.00,WUHU216DAVISVP2,2013-02-28 18:20:00,
2013-02-28 10:25:00,59.4,44.7,30.44,NNW,335,3.0,4.0,58,0.00,,,0.00,WUHU216DAVISVP2,2013-02-28 18:25:00,
2013-02-28 10:30:00,59.4,43.8,30.44,NW,311,0.0,5.0,56,0.00,,,0.00,WUHU216DAVISVP2,2013-02-28 18:30:00,
2013-02-28 10:35:00,59.9,44.3,30.44,NNW,329,0.0,5.0,56,0.00,,,0.00,WUHU216DAVISVP2,2013-02-28 18:35:00,
2013-02-28 10:40:00,60.3,44.1,30.44,NW,306,0.0,4.0,55,0.00,,,0.00,WUHU216DAVISVP2,2013-02-28 18:40:00,
2013-02-28 10:45:00,60.5,44.3,30.44,WNW,302,1.0,4.0,55,0.00,,,0.00,WUHU216DAVISVP2,2013-02-28 18:45:00,
2013-02-28 10:50:00,60.5,44.3,30.44,WNW,302,0.0,5.0,55,0.00,,,0.00,WUHU216DAVISVP2,2013-02-28 18:50:00,
2013-02-28 10:55:00,61.9,45.6,30.43,NNE,15,3.0,5.0,55,0.00,,,0.00,WUHU216DAVISVP2,2013-02-28 18:55:00,
2013-02-28 11:00:00,61.8,44.5,30.43,NW,320,0.0,5.0,53,0.00,,,0.00,WUHU216DAVISVP2,2013-02-28 19:00:00,
2013-02-28 11:05:00,62.1,45.3,30.43,NW,320,0.0,5.0,54,0.00,,,0.00,WUHU216DAVISVP2,2013-02-28 19:05:00,
2013-02-28 11:10:00,62.9,45.5,30.43,NNE,17,0.0,4.0,53,0.00,,,0.00,WUHU216DAVISVP2,2013-02-28 19:10:00,
2013-02-28 11:15:00,63.3,44.9,30.43,NNE,17,0.0,4.0,51,0.00,,,0.00,WUHU216DAVISVP2,2013-02-28 19:15:00,
2013-02-28 11:20:00,63.6,45.1,30.42,NW,321,4.0,5.0,51,0.00,,,0.00,WUHU216DAVISVP2,2013-02-28 19:20:00,
2013-02-28 11:25:00,63.8,44.8,30.42,NW,311,0.0,5.0,50,0.00,,,0.00,WUHU216DAVISVP2,2013-02-28 19:25:00,
2013-02-28 11:30:00,63.7,45.3,30.42,NW,311,0.0,5.0,51,0.00,,,0.00,WUHU216DAVISVP2,2013-02-28 19:30:00,
2013-02-28 11:35:00,64.9,45.3,30.42,NNW,346,0.0,6.0,49,0.00,,,0.00,WUHU216DAVISVP2,2013-02-28 19:35:00,
2013-02-28 11:40:00,64.7,46.7,30.43,North,360,0.0,6.0,52,0.00,,,0.00,WUHU216DAVISVP2,2013-02-28 19:40:00,
2013-02-28 11:45:00,64.7,45.7,30.42,North,10,0.0,6.0,50,0.00,,,0.00,WUHU216DAVISVP2,2013-02-28 19:45:00,
2013-02-28 11:50:00,66.1,45.8,30.42,North,355,0.0,5.0,48,0.00,,,0.00,WUHU216DAVISVP2,2013-02-28 19:50:00,
2013-02-28 11:56:00,65.7,44.3,30.42,NW,317,1.0,5.0,46,0.00,,,0.00,WUHU216DAVISVP2,2013-02-28 19:56:00,
2013-02-28 12:01:00,66.3,44.9,30.41,NNE,22,0.0,5.0,46,0.00,,,0.00,WUHU216DAVISVP2,2013-02-28 20:01:00,
2013-02-28 12:06:00,65.4,44.6,30.41,NNW,334,0.0,4.0,47,0.00,,,0.00,WUHU216DAVISVP2,2013-02-28 20:06:00,
2013-02-28 12:10:00,65.8,45.6,30.41,ENE,63,0.0,4.0,48,0.00,,,0.00,WUHU216DAVISVP2,2013-02-28 20:10:00,
2013-02-28 12:15:00,67.3,43.3,30.40,NNE,31,3.0,4.0,42,0.00,,,0.00,WUHU216DAVISVP2,2013-02-28 20:15:00,
2013-02-28 12:20:00,67.3,44.0,30.40,North,355,5.0,5.0,43,0.00,,,0.00,WUHU216DAVISVP2,2013-02-28 20:20:00,
2013-02-28 12:25:00,67.2,44.5,30.40,NNE,12,4.0,5.0,44,0.00,,,0.00,WUHU216DAVISVP2,2013-02-28 20:25:00,
2013-02-28 12:30:00,67.9,44.0,30.40,NNW,332,4.0,7.0,42,0.00,,,0.00,WUHU216DAVISVP2,2013-02-28 20:30:00,
2013-02-28 12:35:00,68.0,42.1,30.39,ENE,67,0.0,8.0,39,0.00,,,0.00,WUHU216DAVISVP2,2013-02-28 20:35:00,
2013-02-28 12:40:00,68.8,43.5,30.39,NNE,21,0.0,8.0,40,0.00,,,0.00,WUHU216DAVISVP2,2013-02-28 20:40:00,
2013-02-28 12:45:00,68.5,43.1,30.39,North,355,0.0,6.0,40,0.00,,,0.00,WUHU216DAVISVP2,2013-02-28 20:45:00,
2013-02-28 12:50:00,67.8,41.8,30.39,North,10,0.0,6.0,39,0.00,,,0.00,WUHU216DAVISVP2,2013-02-28 20:50:00,
2013-02-28 12:55:00,68.0,44.0,30.39,WNW,288,0.0,6.0,42,0.00,,,0.00,WUHU216DAVISVP2,2013-02-28 20:55:00,
2013-02-28 13:00:00,68.3,42.9,30.38,WNW,286,5.0,6.0,40,0.00,,,0.00,WUHU216DAVISVP2,2013-02-28 21:00:00,
2013-02-28 13:05:00,67.1,42.5,30.38,WNW,285,0.0,5.0,41,0.00,,,0.00,WUHU216DAVISVP2,2013-02-28 21:05:00,
2013-02-28 13:10:00,68.3,43.7,30.38,NW,321,3.0,5.0,41,0.00,,,0.00,WUHU216DAVISVP2,2013-02-28 21:10:00,
2013-02-28 13:15:00,68.5,43.1,30.38,NNW,329,0.0,6.0,40,0.00,,,0.00,WUHU216DAVISVP2,2013-02-28 21:15:00,
2013-02-28 13:20:00,69.0,43.7,30.37,WNW,302,0.0,6.0,40,0.00,,,0.00,WUHU216DAVISVP2,2013-02-28 21:20:00,
2013-02-28 13:25:00,69.2,43.8,30.37,NNW,332,0.0,5.0,40,0.00,,,0.00,WUHU216DAVISVP2,2013-02-28 21:25:00,
2013-02-28 13:30:00,68.8,42.1,30.36,NNW,337,1.0,5.0,38,0.00,,,0.00,WUHU216DAVISVP2,2013-02-28 21:30:00,
2013-02-28 13:35:00,70.1,43.9,30.36,North,5,0.0,5.0,39,0.00,,,0.00,WUHU216DAVISVP2,2013-02-28 21:35:00,
2013-02-28 13:40:00,69.8,43.6,30.36,NW,324,5.0,5.0,39,0.00,,,0.00,WUHU216DAVISVP2,2013-02-28 21:40:00,
2013-02-28 13:45:00,69.0,42.9,30.36,NW,321,3.0,6.0,39,0.00,,,0.00,WUHU216DAVISVP2,2013-02-28 21:45:00,
2013-02-28 13:50:00,69.5,41.9,30.36,NNW,340,0.0,6.0,37,0.00,,,0.00,WUHU216DAVISVP2,2013-02-28 21:50:00,
2013-02-28 13:55:00,68.6,41.1,30.36,NNW,340,0.0,6.0,37,0.00,,,0.00,WUHU216DAVISVP2,2013-02-28 21:55:00,
2013-02-28 14:00:00,68.4,42.3,30.35,NNW,340,0.0,4.0,39,0.00,,,0.00,WUHU216DAVISVP2,2013-02-28 22:00:00,
2013-02-28 14:05:00,68.3,41.6,30.35,North,355,5.0,5.0,38,0.00,,,0.00,WUHU216DAVISVP2,2013-02-28 22:05:00,
2013-02-28 14:10:00,70.3,43.3,30.35,NNW,333,2.0,7.0,38,0.00,,,0.00,WUHU216DAVISVP2,2013-02-28 22:10:00,
2013-02-28 14:15:00,69.9,42.3,30.35,NNW,329,0.0,7.0,37,0.00,,,0.00,WUHU216DAVISVP2,2013-02-28 22:15:00,
2013-02-28 14:20:00,69.0,41.5,30.35,NNW,329,0.0,4.0,37,0.00,,,0.00,WUHU216DAVISVP2,2013-02-28 22:20:00,
2013-02-28 14:25:00,69.5,41.9,30.35,NNW,341,1.0,6.0,37,0.00,,,0.00,WUHU216DAVISVP2,2013-02-28 22:25:00,
2013-02-28 14:30:00,69.0,41.5,30.35,NW,313,1.0,6.0,37,0.00,,,0.00,WUHU216DAVISVP2,2013-02-28 22:30:00,
2013-02-28 14:35:00,69.8,42.3,30.35,NNW,345,4.0,9.0,37,0.00,,,0.00,WUHU216DAVISVP2,2013-02-28 22:35:00,
2013-02-28 14:40:00,70.3,42.1,30.35,North,355,0.0,9.0,36,0.00,,,0.00,WUHU216DAVISVP2,2013-02-28 22:40:00,
2013-02-28 14:45:00,70.3,43.5,30.35,NNE,24,0.0,4.0,38,0.00,,,0.00,WUHU216DAVISVP2,2013-02-28 22:45:00,
2013-02-28 14:50:00,69.8,41.5,30.35,NNE,24,2.0,4.0,36,0.00,,,0.00,WUHU216DAVISVP2,2013-02-28 22:50:00,
2013-02-28 14:55:00,70.0,42.4,30.35,NW,314,0.0,4.0,37,0.00,,,0.00,WUHU216DAVISVP2,2013-02-28 22:55:00,
2013-02-28 15:00:00,70.1,42.6,30.35,WNW,286,1.0,5.0,37,0.00,,,0.00,WUHU216DAVISVP2,2013-02-28 23:00:00,
2013-02-28 15:05:00,70.2,41.3,30.34,WNW,296,1.0,7.0,35,0.00,,,0.00,WUHU216DAVISVP2,2013-02-28 23:05:00,
2013-02-28 15:10:00,70.1,41.9,30.34,NNW,347,0.0,7.0,36,0.00,,,0.00,WUHU216DAVISVP2,2013-02-28 23:10:00,
2013-02-28 15:15:00,69.6,41.5,30.34,North,349,0.0,5.0,36,0.00,,,0.00,WUHU216DAVISVP2,2013-02-28 23:15:00,
2013-02-28 15:20:00,69.9,42.4,30.34,NW,313,2.0,4.0,37,0.00,,,0.00,WUHU216DAVISVP2,2013-02-28 23:20:00,
2013-02-28 15:25:00,70.3,42.8,30.34,NW,305,0.0,6.0,37,0.00,,,0.00,WUHU216DAVISVP2,2013-02-28 23:25:00,
2013-02-28 15:30:00,70.4,42.9,30.34,NW,315,0.0,6.0,37,0.00,,,0.00,WUHU216DAVISVP2,2013-02-28 23:30:00,
2013-02-28 15:35:00,70.7,42.4,30.34,NNW,346,0.0,7.0,36,0.00,,,0.00,WUHU216DAVISVP2,2013-02-28 23:35:00,
2013-02-28 15:40:00,70.9,42.6,30.34,NNE,18,0.0,7.0,36,0.00,,,0.00,WUHU216DAVISVP2,2013-02-28 23:40:00,
2013-02-28 15:45:00,70.2,41.8,30.35,North,355,4.0,7.0,36,0.00,,,0.00,WUHU216DAVISVP2,2013-02-28 23:45:00,
2013-02-28 15:50:00,70.1,42.5,30.35,NW,312,1.0,7.0,37,0.00,,,0.00,WUHU216DAVISVP2,2013-02-28 23:50:00,
2013-02-28 15:55:00,70.0,41.6,30.35,NW,314,8.0,9.0,36,0.00,,,0.00,WUHU216DAVISVP2,2013-02-28 23:55:00,
2013-02-28 16:01:00,69.7,39.1,30.35,NW,311,6.0,10.0,33,0.00,,,0.00,WUHU216DAVISVP2,2013-03-01 00:01:00,
2013-02-28 16:06:00,70.0,40.9,30.35,NW,305,6.0,10.0,35,0.00,,,0.00,WUHU216DAVISVP2,2013-03-01 00:06:00,
2013-02-28 16:11:00,69.7,40.6,30.35,NW,307,5.0,10.0,35,0.00,,,0.00,WUHU216DAVISVP2,2013-03-01 00:11:00,
2013-02-28 16:16:00,69.5,40.5,30.35,NW,306,0.0,10.0,35,0.00,,,0.00,WUHU216DAVISVP2,2013-03-01 00:16:00,
2013-02-28 16:21:00,69.8,40.7,30.35,WNW,298,4.0,7.0,35,0.00,,,0.00,WUHU216DAVISVP2,2013-03-01 00:21:00,
2013-02-28 16:26:00,69.5,41.2,30.35,NW,314,4.0,8.0,36,0.00,,,0.00,WUHU216DAVISVP2,2013-03-01 00:26:00,
2013-02-28 16:31:00,69.3,41.7,30.35,WNW,284,6.0,8.0,37,0.00,,,0.00,WUHU216DAVISVP2,2013-03-01 00:31:00,
2013-02-28 16:36:00,69.0,41.5,30.35,WNW,293,4.0,7.0,37,0.00,,,0.00,WUHU216DAVISVP2,2013-03-01 00:36:00,
2013-02-28 16:41:00,68.9,42.1,30.35,WNW,299,5.0,7.0,38,0.00,,,0.00,WUHU216DAVISVP2,2013-03-01 00:41:00,
2013-02-28 16:46:00,68.8,42.7,30.35,NNW,328,4.0,7.0,39,0.00,,,0.00,WUHU216DAVISVP2,2013-03-01 00:46:00,
2013-02-28 16:51:00,68.6,41.8,30.35,NW,313,0.0,7.0,38,0.00,,,0.00,WUHU216DAVISVP2,2013-03-01 00:51:00,
2013-02-28 16:56:00,68.4,42.3,30.35,NNW,332,0.0,7.0,39,0.00,,,0.00,WUHU216DAVISVP2,2013-03-01 00:56:00,
2013-02-28 17:01:00,68.6,42.5,30.35,NNW,332,0.0,7.0,39,0.00,,,0.00,WUHU216DAVISVP2,2013-03-01 01:01:00,
2013-02-28 17:06:00,68.6,42.5,30.35,NNW,329,0.0,4.0,39,0.00,,,0.00,WUHU216DAVISVP2,2013-03-01 01:06:00,
2013-02-28 17:11:00,68.5,42.4,30.35,NNW,327,0.0,5.0,39,0.00,,,0.00,WUHU216DAVISVP2,2013-03-01 01:11:00,
2013-02-28 17:16:00,68.4,42.3,30.36,NNW,327,0.0,5.0,39,0.00,,,0.00,WUHU216DAVISVP2,2013-03-01 01:16:00,
2013-02-28 17:21:00,68.4,42.3,30.35,NNW,327,0.0,3.0,39,0.00,,,0.00,WUHU216DAVISVP2,2013-03-01 01:21:00,
2013-02-28 17:26:00,68.4,42.3,30.36,NNW,327,2.0,3.0,39,0.00,,,0.00,WUHU216DAVISVP2,2013-03-01 01:26:00,
2013-02-28 17:31:00,68.0,42.6,30.36,NNW,333,0.0,4.0,40,0.00,,,0.00,WUHU216DAVISVP2,2013-03-01 01:31:00,
2013-02-28 17:36:00,67.5,42.2,30.36,NNW,336,0.0,4.0,40,0.00,,,0.00,WUHU216DAVISVP2,2013-03-01 01:36:00,
2013-02-28 17:41:00,66.9,41.7,30.36,NNW,333,3.0,4.0,40,0.00,,,0.00,WUHU216DAVISVP2,2013-03-01 01:41:00,
2013-02-28 17:46:00,66.1,42.2,30.36,NNW,341,1.0,4.0,42,0.00,,,0.00,WUHU216DAVISVP2,2013-03-01 01:46:00,
2013-02-28 17:51:00,65.5,41.7,30.36,NNW,341,0.0,4.0,42,0.00,,,0.00,WUHU216DAVISVP2,2013-03-01 01:51:00,
2013-02-28 17:56:00,64.8,41.7,30.36,NNW,341,0.0,3.0,43,0.00,,,0.00,WUHU216DAVISVP2,2013-03-01 01:56:00,
2013-02-28 18:01:00,64.2,41.7,30.36,NNW,341,0.0,3.0,44,0.00,,,0.00,WUHU216DAVISVP2,2013-03-01 02:01:00,
2013-02-28 18:06:00,63.8,41.4,30.36,NNW,341,0.0,1.0,44,0.00,,,0.00,WUHU216DAVISVP2,2013-03-01 02:06:00,
2013-02-28 18:11:00,63.3,41.5,30.36,NNW,341,0.0,1.0,45,0.00,,,0.00,WUHU216DAVISVP2,2013-03-01 02:11:00,
2013-02-28 18:16:00,62.9,41.8,30.36,NNW,341,0.0,0.0,46,0.00,,,0.00,WUHU216DAVISVP2,2013-03-01 02:16:00,
2013-02-28 18:21:00,62.7,41.6,30.36,NNW,341,0.0,0.0,46,0.00,,,0.00,WUHU216DAVISVP2,2013-03-01 02:21:00,
2013-02-28 18:26:00,62.5,41.4,30.36,NNW,341,0.0,0.0,46,0.00,,,0.00,WUHU216DAVISVP2,2013-03-01 02:26:00,
2013-02-28 18:31:00,62.3,41.8,30.36,NNW,341,0.0,0.0,47,0.00,,,0.00,WUHU216DAVISVP2,2013-03-01 02:31:00,
2013-02-28 18:36:00,62.1,41.6,30.36,NNW,341,0.0,0.0,47,0.00,,,0.00,WUHU216DAVISVP2,2013-03-01 02:36:00,
2013-02-28 18:41:00,61.7,41.8,30.37,NNW,341,0.0,0.0,48,0.00,,,0.00,WUHU216DAVISVP2,2013-03-01 02:41:00,
2013-02-28 18:46:00,61.3,41.4,30.37,NNW,341,0.0,0.0,48,0.00,,,0.00,WUHU216DAVISVP2,2013-03-01 02:46:00,
2013-02-28 18:51:00,61.0,41.7,30.37,NNW,341,0.0,0.0,49,0.00,,,0.00,WUHU216DAVISVP2,2013-03-01 02:51:00,
2013-02-28 18:56:00,61.0,41.7,30.37,NNW,341,0.0,0.0,49,0.00,,,0.00,WUHU216DAVISVP2,2013-03-01 02:56:00,
2013-02-28 19:01:00,60.9,42.1,30.37,NNW,341,0.0,0.0,50,0.00,,,0.00,WUHU216DAVISVP2,2013-03-01 03:01:00,
2013-02-28 19:06:00,60.3,41.6,30.37,NNW,341,0.0,0.0,50,0.00,,,0.00,WUHU216DAVISVP2,2013-03-01 03:06:00,
2013-02-28 19:11:00,60.0,42.4,30.38,NNW,341,0.0,0.0,52,0.00,,,0.00,WUHU216DAVISVP2,2013-03-01 03:11:00,
2013-02-28 19:16:00,59.4,41.8,30.38,NNW,341,0.0,0.0,52,0.00,,,0.00,WUHU216DAVISVP2,2013-03-01 03:16:00,
2013-02-28 19:21:00,58.9,42.8,30.38,NNW,341,0.0,0.0,55,0.00,,,0.00,WUHU216DAVISVP2,2013-03-01 03:21:00,
2013-02-28 19:26:00,58.7,42.6,30.38,NNW,341,0.0,0.0,55,0.00,,,0.00,WUHU216DAVISVP2,2013-03-01 03:26:00,
2013-02-28 19:31:00,58.3,42.3,30.38,NNW,341,0.0,1.0,55,0.00,,,0.00,WUHU216DAVISVP2,2013-03-01 03:31:00,
2013-02-28 19:36:00,58.0,42.5,30.38,NNW,341,0.0,1.0,56,0.00,,,0.00,WUHU216DAVISVP2,2013-03-01 03:36:00,
2013-02-28 19:41:00,57.8,42.8,30.38,NNW,341,0.0,1.0,57,0.00,,,0.00,WUHU216DAVISVP2,2013-03-01 03:41:00,
2013-02-28 19:46:00,57.0,42.5,30.39,NNW,341,0.0,0.0,58,0.00,,,0.00,WUHU216DAVISVP2,2013-03-01 03:46:00,
2013-02-28 19:51:00,55.9,41.9,30.39,NNW,341,0.0,0.0,59,0.00,,,0.00,WUHU216DAVISVP2,2013-03-01 03:51:00,
2013-02-28 19:56:00,56.1,42.5,30.39,NNW,341,0.0,0.0,60,0.00,,,0.00,WUHU216DAVISVP2,2013-03-01 03:56:00,
2013-02-28 20:01:00,55.7,42.6,30.39,NNW,341,0.0,1.0,61,0.00,,,0.00,WUHU216DAVISVP2,2013-03-01 04:01:00,
2013-02-28 20:06:00,55.7,43.0,30.39,NNW,341,0.0,1.0,62,0.00,,,0.00,WUHU216DAVISVP2,2013-03-01 04:06:00,
2013-02-28 20:11:00,55.4,43.1,30.39,NNW,341,0.0,1.0,63,0.00,,,0.00,WUHU216DAVISVP2,2013-03-01 04:11:00,
2013-02-28 20:16:00,55.2,42.5,30.39,NNW,341,0.0,0.0,62,0.00,,,0.00,WUHU216DAVISVP2,2013-03-01 04:16:00,
2013-02-28 20:21:00,54.5,42.7,30.39,NNW,341,0.0,0.0,64,0.00,,,0.00,WUHU216DAVISVP2,2013-03-01 04:21:00,
2013-02-28 20:26:00,54.1,42.7,30.40,NNW,341,0.0,0.0,65,0.00,,,0.00,WUHU216DAVISVP2,2013-03-01 04:26:00,
2013-02-28 20:31:00,54.2,42.8,30.40,NNW,341,0.0,0.0,65,0.00,,,0.00,WUHU216DAVISVP2,2013-03-01 04:31:00,
2013-02-28 20:36:00,54.3,42.9,30.40,NNW,341,0.0,0.0,65,0.00,,,0.00,WUHU216DAVISVP2,2013-03-01 04:36:00,
2013-02-28 20:41:00,54.0,42.6,30.40,NNW,341,0.0,0.0,65,0.00,,,0.00,WUHU216DAVISVP2,2013-03-01 04:41:00,
2013-02-28 20:46:00,53.7,42.7,30.40,NNW,341,0.0,0.0,66,0.00,,,0.00,WUHU216DAVISVP2,2013-03-01 04:46:00,
2013-02-28 20:51:00,53.5,42.5,30.40,NNW,341,0.0,0.0,66,0.00,,,0.00,WUHU216DAVISVP2,2013-03-01 04:51:00,
2013-02-28 20:56:00,53.4,42.4,30.40,NNW,341,0.0,0.0,66,0.00,,,0.00,WUHU216DAVISVP2,2013-03-01 04:56:00,
2013-02-28 21:00:00,53.2,42.3,30.40,NNW,341,0.0,0.0,66,0.00,,,0.00,WUHU216DAVISVP2,2013-03-01 05:00:00,
2013-02-28 21:05:00,53.3,42.7,30.40,NNW,341,0.0,0.0,67,0.00,,,0.00,WUHU216DAVISVP2,2013-03-01 05:05:00,
2013-02-28 21:06:00,53.3,42.7,30.40,NNW,341,0.0,0.0,67,0.00,,,0.00,WUHU216DAVISVP2,2013-03-01 05:06:00,
2013-02-28 21:11:00,53.1,42.5,30.41,NNW,341,0.0,0.0,67,0.00,,,0.00,WUHU216DAVISVP2,2013-03-01 05:11:00,
2013-02-28 21:16:00,52.4,42.6,30.41,NNW,341,0.0,0.0,69,0.00,,,0.00,WUHU216DAVISVP2,2013-03-01 05:16:00,
2013-02-28 21:21:00,52.2,42.8,30.41,NNW,341,0.0,0.0,70,0.00,,,0.00,WUHU216DAVISVP2,2013-03-01 05:21:00,
2013-02-28 21:26:00,52.0,43.0,30.41,NNW,341,0.0,0.0,71,0.00,,,0.00,WUHU216DAVISVP2,2013-03-01 05:26:00,
2013-02-28 21:31:00,51.7,42.7,30.41,NNW,341,0.0,0.0,71,0.00,,,0.00,WUHU216DAVISVP2,2013-03-01 05:31:00,
2013-02-28 21:36:00,51.5,42.9,30.41,NNW,341,0.0,1.0,72,0.00,,,0.00,WUHU216DAVISVP2,2013-03-01 05:36:00,
2013-02-28 21:41:00,51.2,42.6,30.41,NNW,341,0.0,1.0,72,0.00,,,0.00,WUHU216DAVISVP2,2013-03-01 05:41:00,
2013-02-28 21:46:00,50.7,42.1,30.41,NNW,341,0.0,0.0,72,0.00,,,0.00,WUHU216DAVISVP2,2013-03-01 05:46:00,
2013-02-28 21:51:00,50.3,42.1,30.41,NNW,341,0.0,0.0,73,0.00,,,0.00,WUHU216DAVISVP2,2013-03-01 05:51:00,
2013-02-28 21:56:00,50.5,42.3,30.41,NNW,341,2.0,2.0,73,0.00,,,0.00,WUHU216DAVISVP2,2013-03-01 05:56:00,
2013-02-28 22:01:00,51.0,42.4,30.41,NNW,341,0.0,3.0,72,0.00,,,0.00,WUHU216DAVISVP2,2013-03-01 06:01:00,
2013-02-28 22:06:00,51.3,42.7,30.41,NNW,341,0.0,3.0,72,0.00,,,0.00,WUHU216DAVISVP2,2013-03-01 06:06:00,
2013-02-28 22:11:00,51.5,42.5,30.41,NNW,341,0.0,0.0,71,0.00,,,0.00,WUHU216DAVISVP2,2013-03-01 06:11:00,
2013-02-28 22:16:00,51.6,42.6,30.41,NNW,341,0.0,0.0,71,0.00,,,0.00,WUHU216DAVISVP2,2013-03-01 06:16:00,
2013-02-28 22:21:00,51.4,42.4,30.42,NNW,341,0.0,0.0,71,0.00,,,0.00,WUHU216DAVISVP2,2013-03-01 06:21:00,
2013-02-28 22:26:00,51.1,42.5,30.42,NNW,341,0.0,0.0,72,0.00,,,0.00,WUHU216DAVISVP2,2013-03-01 06:26:00,
2013-02-28 22:31:00,50.8,42.5,30.42,NNW,341,0.0,0.0,73,0.00,,,0.00,WUHU216DAVISVP2,2013-03-01 06:31:00,
2013-02-28 22:36:00,50.6,42.4,30.42,NNW,341,0.0,0.0,73,0.00,,,0.00,WUHU216DAVISVP2,2013-03-01 06:36:00,
2013-02-28 22:41:00,50.5,42.5,30.42,NNW,341,0.0,0.0,74,0.00,,,0.00,WUHU216DAVISVP2,2013-03-01 06:41:00,
2013-02-28 22:46:00,50.2,42.2,30.42,NNW,341,0.0,0.0,74,0.00,,,0.00,WUHU216DAVISVP2,2013-03-01 06:46:00,
2013-02-28 22:51:00,49.6,41.7,30.42,SE,140,2.0,4.0,74,0.00,,,0.00,WUHU216DAVISVP2,2013-03-01 06:51:00,
2013-02-28 22:56:00,49.2,41.6,30.42,SE,140,0.0,4.0,75,0.00,,,0.00,WUHU216DAVISVP2,2013-03-01 06:56:00,
2013-02-28 23:01:00,49.5,42.3,30.42,SE,140,0.0,2.0,76,0.00,,,0.00,WUHU216DAVISVP2,2013-03-01 07:01:00,
2013-02-28 23:06:00,49.6,42.4,30.42,SE,140,0.0,0.0,76,0.00,,,0.00,WUHU216DAVISVP2,2013-03-01 07:06:00,
2013-02-28 23:11:00,49.6,42.4,30.42,SE,140,0.0,0.0,76,0.00,,,0.00,WUHU216DAVISVP2,2013-03-01 07:11:00,
2013-02-28 23:16:00,49.4,41.9,30.42,SE,140,0.0,0.0,75,0.00,,,0.00,WUHU216DAVISVP2,2013-03-01 07:16:00,
2013-02-28 23:21:00,49.0,41.8,30.42,SE,140,0.0,0.0,76,0.00,,,0.00,WUHU216DAVISVP2,2013-03-01 07:21:00,
2013-02-28 23:26:00,49.2,42.0,30.42,SE,140,0.0,0.0,76,0.00,,,0.00,WUHU216DAVISVP2,2013-03-01 07:26:00,
2013-02-28 23:31:00,49.4,41.8,30.42,SE,140,0.0,0.0,75,0.00,,,0.00,WUHU216DAVISVP2,2013-03-01 07:31:00,
2013-02-28 23:36:00,49.1,41.9,30.42,SE,140,0.0,0.0,76,0.00,,,0.00,WUHU216DAVISVP2,2013-03-01 07:36:00,
2013-02-28 23:41:00,49.3,42.1,30.41,SE,140,0.0,0.0,76,0.00,,,0.00,WUHU216DAVISVP2,2013-03-01 07:41:00,
2013-02-28 23:46:00,49.0,41.8,30.41,SE,140,0.0,0.0,76,0.00,,,0.00,WUHU216DAVISVP2,2013-03-01 07:46:00,
2013-02-28 23:51:00,48.1,41.0,30.41,SE,140,0.0,0.0,76,0.00,,,0.00,WUHU216DAVISVP2,2013-03-01 07:51:00,
2013-02-28 23:56:00,47.8,41.6,30.41,SE,140,0.0,0.0,79,0.00,,,0.00,WUHU216DAVISVP2,2013-03-01 07:56:00,